Regional Weather Roundup
Issued by NWS

Home | Current Version | Previous Version | Text Only | Print | Product List | Glossary Off
Versions: 1 2 3 4 5 6 7 8 9 10 11 12 13 14 15 16 17 18 19 20 21 22 23 24 25 26 27 28 29 30 31 32 33 34 35 36 37 38 39 40 41 42 43 44 45 46 47 48 49 50

000
ASUS43 KOAX 220810
RWRNE

WEATHER ROUNDUP FOR NEBRASKA
NATIONAL WEATHER SERVICE OMAHA NE
200 AM CST THU FEB 22 2018

NOTES: SATELLITE DATA IS BEING USED TO AUGMENT CLOUD COVER ABOVE
       12000 FEET.
       "FAIR" INDICATES FEW OR NO CLOUDS BELOW 12,000 FEET WITH NO
       SIGNIFICANT WEATHER AND/OR OBSTRUCTIONS TO VISIBILITY.


NEZ001>004-019>022-054>056-220900-
NEBRASKA PANHANDLE

CITY           SKY/WX    TMP DP  RH WIND       PRES   REMARKS
SCOTTSBLUFF    MOCLDY     9   5  84 E13       30.16F WCI  -7
ALLIANCE       FAIR       5   2  87 S10       30.18F WCI -10
CHADRON        MOCLDY    17   7  64 S8        30.18F WCI   7
GORDON         FAIR      14   5  68 CALM      30.19F
KIMBALL        FAIR       5   1  84 S9        30.11F WCI  -9
SIDNEY         FAIR       6   3  87 CALM      30.16F
$$

NEZ057>060-069>072-079>082-220900-
SOUTHWEST NEBRASKA

CITY           SKY/WX    TMP DP  RH WIND       PRES   REMARKS
NORTH PLATTE   CLOUDY    21  17  84 SE9       30.31F WCI  11
IMPERIAL       CLOUDY    21   9  59 SE12      30.26F WCI   9
LEXINGTON      CLOUDY    22  17  79 E10       30.34F WCI  11
MCCOOK         CLOUDY    23   8  52 E14       30.31F WCI  11
OGALLALA       CLOUDY    23  15  70 SE9       30.25F WCI  13
$$

NEZ005>010-023>029-035>040-094-220900-
NORTH CENTRAL NEBRASKA

CITY           SKY/WX    TMP DP  RH WIND       PRES   REMARKS
VALENTINE      FAIR      15   6  67 S13       30.29F WCI   1
AINSWORTH      FAIR      15  12  88 S9        30.31F WCI   4
BROKEN BOW     FLURRIES  20  15  81 SE9       30.34F WCI   9
O`NEILL        CLOUDY    19  14  81 S7        30.39F WCI  10
ORD            LGT SNOW  19  16  88 SE8       30.39F FOG     WCI   9
THEDFORD         N/A     20  17  88 S9        30.30F WCI  10
$$

NEZ041-046>049-061>064-073>077-083>087-220900-
SOUTH CENTRAL NEBRASKA

CITY           SKY/WX    TMP DP  RH WIND       PRES   REMARKS
GRAND ISLAND   LGT SNOW  21  16  81 E7        30.43F WCI  12
AURORA         LGT SNOW  20  18  89 NE8       30.42F WCI  11
HASTINGS       CLOUDY    20  14  77 NE12      30.39F WCI   8
HEBRON         CLOUDY    23  21  92 NE9       30.41F WCI  13
HOLDREGE       CLOUDY    22  13  67 E12       30.35F WCI  11
KEARNEY        FLURRIES  21  14  74 E10       30.39F WCI  10
YORK           LGT SNOW  21  21 100 NE7       30.44F WCI  13
$$

NEZ011>018-030>034-042>045-220900-
NORTHEAST NEBRASKA

CITY           SKY/WX    TMP DP  RH WIND       PRES   REMARKS
NORFOLK        CLOUDY    20  17  88 E6        30.45F WCI  12
ALBION         CLOUDY    21  17  85 SE5       30.44F WCI  15
BLAIR          LGT SNOW  22  20  93 NE7       30.47F WCI  13
COLUMBUS       LGT SNOW  21  18  86 E8        30.47F VSB 1   WCI  12
FREMONT        LGT SNOW  21  19  91 NE5       30.49F WCI  15
TEKAMAH        LGT SNOW  20  19  96 SE5       30.52S VSB 1   WCI  13
WAYNE          CLOUDY    20  17  88 SE6       30.50R WCI  13
$$

NEZ050>053-065>068-078-088>093-220900-
SOUTHEAST NEBRASKA

CITY           SKY/WX    TMP DP  RH WIND       PRES   REMARKS
LINCOLN        LGT SNOW  22  19  89 NE12      30.47F FOG     WCI  10
OMAHA EPPLEY   CLOUDY    23  18  81 N6        30.52F WCI  16
BEATRICE       MIX PCPN  25  22  91 NE10      30.43F WCI  15
FALLS CITY     MIX PCPN  25  21  85 NE9       30.45F WCI  15
NEBRASKA CITY  LGT SNOW  24  24 100 NE10      30.46F WCI  13
PLATTSMOUTH    FLURRIES  24  19  83 NE10      30.48F WCI  13
$$

NEZ044-045-051>053-067-220900-
OMAHA AREA

CITY           SKY/WX    TMP DP  RH WIND       PRES   REMARKS
OMAHA EPPLEY   CLOUDY    23  18  81 N6        30.52F WCI  16
BLAIR          LGT SNOW  22  20  93 NE7       30.47F WCI  13
FREMONT        LGT SNOW  21  19  91 NE5       30.49F WCI  15
MILLARD        CLOUDY    24  20  86 NE3       30.50F
OFFUTT AFB     CLEAR     23  18  80 NE9       30.51S WCI  13
PLATTSMOUTH    FLURRIES  24  19  83 NE10      30.48F WCI  13
WAHOO          LGT SNOW  22  19  91 NE6       30.48F WCI  14
$$




USA.gov is the U.S. government's official web portal to all federal, state and local government web resources and services.